Flag for Ireland Weather past 2 weeks in Dublin, Ireland

Now
37 °F

Passing clouds.


Feels Like: 28 °F
Forecast: 41 / 47 °F
Wind: 17 mph from West

Location: Dublin Airport

Current Time: Mar 30, 2015 at 1:26:29 AM

Latest Report: Mar 30, 2015 at 1:00 AM


Visibility: N/A

Pressure: 29.62 "Hg

Humidity: 87%

Dew point: 34 °F

Location of DublinLocation

Historic Weather in Dublin — Graph

°F

Dublin temperature yesterday

Maximum temperature yesterday: 48 °F (at 1:30 PM)
Minimum temperature yesterday: 39 °F (at 10:30 PM)
Average temperature yesterday: 44 °F

Past Weeks' High & Low Weather Summary

 TemperatureHumidityPressure
High57 °F (Mar 28, 11:00 AM)100% (Mar 17, 2:00 AM)30.60 "Hg (Mar 17, 2:00 AM)
Low25 °F (Mar 18, 5:30 AM)50% (Mar 23, 2:30 PM)29.27 "Hg (Mar 29, 9:00 AM)
Average42 °F82%30.10 "Hg
* Reported Mar 14 11:00 PM — Midnight between Mar 29 and Mar 30, Dublin, Weather by CustomWeather, © 2015

Note: Actual official high and low records may vary slightly from our data, if they occured in-between our weather recording intervals... More about our weather records

Advertising

Dublin weather history for previous 24 hours

 ConditionsComfort  
Time TempWeatherWind HumidityBarometerVisibility
12:00 AM
Mon, Mar 30
39 °FPassing clouds.20 mph81%29.59 "HgN/A
11:30 PM
Sun, Mar 29
39 °FPassing clouds.18 mph87%29.56 "HgN/A
11:00 PM39 °FPassing clouds.17 mph87%29.56 "HgN/A
10:30 PM39 °FPassing clouds.20 mph87%29.56 "HgN/A
10:00 PM41 °FPassing clouds.18 mph81%29.53 "HgN/A
9:30 PM41 °FPassing clouds.16 mph81%29.53 "HgN/A
9:00 PM41 °FPassing clouds.21 mph81%29.53 "HgN/A
8:30 PM41 °FBroken clouds.17 mph87%29.50 "HgN/A
8:00 PM41 °FBroken clouds.13 mph87%29.50 "HgN/A
7:30 PM41 °FSprinkles. Partly sunny.23 mph87%29.50 "HgN/A
7:00 PM43 °FSprinkles. Partly sunny.13 mph81%29.47 "HgN/A
6:30 PM43 °FPartly sunny.18 mph81%29.45 "HgN/A
6:00 PM43 °FSprinkles. Partly sunny.18 mph81%29.45 "HgN/A
5:30 PM46 °FBroken clouds.28 mph71%29.45 "HgN/A
5:00 PM46 °FPartly sunny.28 mph71%29.42 "HgN/A
4:30 PM48 °FPartly sunny.26 mph71%29.42 "HgN/A
4:00 PM45 °FPartly sunny.28 mph87%29.42 "HgN/A
3:30 PM46 °FBroken clouds.24 mph82%29.39 "HgN/A
3:00 PM48 °FBroken clouds.29 mph82%29.39 "HgN/A
2:30 PM46 °FSprinkles. Partly sunny.26 mph82%29.39 "HgN/A
2:00 PM46 °FSprinkles. Partly sunny.29 mph82%29.36 "HgN/A
1:30 PM48 °FBroken clouds.29 mph76%29.36 "HgN/A
1:00 PM46 °FBroken clouds.30 mph87%29.36 "HgN/A
12:30 PM45 °FSprinkles. Broken clouds.28 mph93%29.36 "HgN/A
12:00 PM45 °FLight rain. Broken clouds.22 mph87%29.36 "HgN/A
11:30 AM43 °FLight rain. Broken clouds.16 mph93%29.33 "HgN/A
11:00 AM43 °FBroken clouds.12 mph93%29.30 "HgN/A
10:30 AM43 °FBroken clouds.12 mph93%29.30 "HgN/A
10:00 AM41 °FBroken clouds.10 mph93%29.27 "HgN/A
9:30 AM41 °FLight rain. Broken clouds.12 mph93%29.27 "HgN/A
9:00 AM41 °FLight rain. Broken clouds.10 mph93%29.27 "Hg4 mi
8:30 AM41 °FDrizzle. Broken clouds.6 mph100%29.30 "Hg1 mi
8:00 AM41 °FLight rain. Partly cloudy.3 mph100%29.30 "Hg1 mi
7:30 AM43 °FLight rain. Mostly cloudy.3 mph93%29.33 "Hg2 mi
7:00 AM43 °FLight rain. Partly cloudy.6 mph87%29.36 "Hg5 mi
6:30 AM43 °FLight rain. Partly cloudy.9 mph87%29.39 "Hg6 mi
6:00 AM43 °FLight rain. Partly cloudy.17 mph87%29.42 "Hg6 mi
5:30 AM45 °FLight rain. Partly cloudy.21 mph81%29.45 "Hg6 mi
5:00 AM45 °FPartly cloudy.23 mph76%29.45 "HgN/A
4:30 AM45 °FPartly cloudy.21 mph76%29.47 "HgN/A
4:00 AM45 °FPartly cloudy.20 mph76%29.47 "HgN/A
3:30 AM45 °FPartly cloudy.26 mph76%29.47 "HgN/A
3:00 AM45 °FPartly cloudy.30 mph76%29.47 "HgN/A
2:30 AM45 °FPassing clouds.31 mph76%29.50 "HgN/A
2:00 AM46 °FPassing clouds.32 mph71%29.50 "HgN/A
Weather by CustomWeather, © 2015

See weather overviewHow to use our weather pages